�������l�o���
Date,Time,MP-1(��Sv/h),MP-2(��Sv/h),MP-3(��Sv/h),MP-4(��Sv/h),MP-5(��Sv/h),MP-6(��Sv/h),MP-7(��Sv/h),MP-8(��Sv/h),����,����(m/s),���J
2021/10/16,00:00,0.580,0.868,0.552,1.052,0.742,0.356,0.614,0.579,�k�k��,7.3,��
2021/10/16,00:10,0.581,0.867,0.552,1.052,0.739,0.357,0.613,0.579,�k,6.8,��
2021/10/16,00:20,0.579,0.869,0.553,1.052,0.741,0.356,0.613,0.579,�k�k��,6.8,��
2021/10/16,00:30,0.581,0.869,0.552,1.051,0.741,0.356,0.615,0.580,�k�k��,6.3,��
2021/10/16,00:40,0.580,0.868,0.553,1.053,0.743,0.356,0.614,0.579,�k�k��,6.5,��
2021/10/16,00:50,0.579,0.869,0.552,1.051,0.741,0.355,0.613,0.581,�k�k��,7.6,��
2021/10/16,01:00,0.581,0.869,0.551,1.052,0.743,0.355,0.614,0.578,�k�k��,6.0,��
2021/10/16,01:10,0.581,0.868,0.554,1.052,0.742,0.355,0.614,0.581,�k�k��,6.3,��
2021/10/16,01:20,0.580,0.869,0.554,1.052,0.743,0.357,0.613,0.580,�k��,5.8,��
2021/10/16,01:30,0.580,0.869,0.553,1.052,0.740,0.356,0.613,0.582,�k�k��,5.7,�L
2021/10/16,01:40,0.581,0.871,0.552,1.052,0.741,0.356,0.614,0.581,�k�k��,6.5,�L
2021/10/16,01:50,0.581,0.869,0.554,1.051,0.741,0.356,0.614,0.581,�k�k��,6.6,�L
2021/10/16,02:00,0.582,0.871,0.553,1.051,0.742,0.356,0.616,0.581,�k�k��,6.5,�L
2021/10/16,02:10,0.581,0.869,0.553,1.052,0.741,0.357,0.614,0.579,�k��,6.3,�L
2021/10/16,02:20,0.580,0.866,0.554,1.053,0.742,0.356,0.613,0.580,�k��,5.4,�L
2021/10/16,02:30,0.582,0.866,0.554,1.053,0.742,0.357,0.614,0.580,�k��,5.4,�L
2021/10/16,02:40,0.581,0.867,0.553,1.054,0.742,0.358,0.614,0.579,�k��,5.8,�L
2021/10/16,02:50,0.583,0.866,0.555,1.053,0.738,0.358,0.613,0.581,�k��,5.3,�L
2021/10/16,03:00,0.584,0.862,0.555,1.052,0.741,0.358,0.614,0.579,�k��,5.1,�L
2021/10/16,03:10,0.582,0.860,0.555,1.051,0.739,0.359,0.614,0.578,�k�k��,4.9,�L
2021/10/16,03:20,0.583,0.859,0.555,1.050,0.738,0.361,0.612,0.579,�k�k��,4.9,�L
2021/10/16,03:30,0.582,0.859,0.558,1.050,0.738,0.361,0.613,0.577,�k�k��,4.4,�L
2021/10/16,03:40,0.582,0.856,0.554,1.050,0.737,0.360,0.611,0.578,�k�k��,5.0,�L
2021/10/16,03:50,0.579,0.854,0.553,1.047,0.737,0.361,0.612,0.576,�k�k��,3.9,�L
2021/10/16,04:00,0.579,0.856,0.554,1.048,0.734,0.360,0.611,0.575,�k�k��,3.6,�L
2021/10/16,04:10,0.578,0.855,0.552,1.047,0.734,0.360,0.611,0.576,�k�k��,3.9,�L
2021/10/16,04:20,0.579,0.852,0.552,1.045,0.735,0.359,0.610,0.576,�k,3.2,�L
2021/10/16,04:30,0.578,0.852,0.552,1.045,0.735,0.361,0.611,0.575,�k�k��,2.3,�L
2021/10/16,04:40,0.579,0.850,0.553,1.045,0.735,0.360,0.614,0.574,�k,1.7,�L
2021/10/16,04:50,0.578,0.852,0.553,1.045,0.736,0.361,0.610,0.575,�k�k��,3.0,�L
2021/10/16,05:00,0.578,0.851,0.552,1.043,0.735,0.363,0.611,0.576,�k��,6.0,�L
2021/10/16,05:10,0.577,0.848,0.552,1.045,0.736,0.363,0.610,0.575,�k��,4.8,�L
2021/10/16,05:20,0.577,0.850,0.555,1.044,0.736,0.362,0.611,0.575,�k��,4.3,�L
2021/10/16,05:30,0.576,0.850,0.554,1.039,0.735,0.363,0.611,0.576,�k��,4.6,�L
2021/10/16,05:40,0.577,0.848,0.554,1.041,0.734,0.364,0.609,0.575,�k�k��,2.9,�L
2021/10/16,05:50,0.577,0.848,0.556,1.040,0.735,0.362,0.612,0.573,�k,3.4,�L
2021/10/16,06:00,0.575,0.848,0.556,1.040,0.734,0.363,0.610,0.575,�k�k��,2.9,�L
2021/10/16,06:10,0.577,0.851,0.559,1.041,0.737,0.367,0.608,0.574,�k��,2.8,�L
2021/10/16,06:20,0.577,0.851,0.562,1.038,0.735,0.368,0.610,0.576,���k��,4.6,�L
2021/10/16,06:30,0.576,0.851,0.558,1.037,0.738,0.369,0.608,0.574,���k��,6.2,�L
2021/10/16,06:40,0.575,0.848,0.557,1.035,0.736,0.367,0.606,0.572,���k��,5.4,�L
2021/10/16,06:50,0.571,0.848,0.555,1.032,0.734,0.366,0.608,0.572,�k��,5.3,�L
2021/10/16,07:00,0.572,0.846,0.555,1.032,0.733,0.365,0.608,0.573,���k��,4.8,�L
2021/10/16,07:10,0.572,0.843,0.555,1.029,0.728,0.363,0.606,0.573,���k��,4.2,�L
2021/10/16,07:20,0.572,0.841,0.554,1.027,0.727,0.362,0.607,0.572,���k��,4.9,�L
2021/10/16,07:30,0.572,0.842,0.552,1.026,0.726,0.362,0.606,0.572,���k��,4.2,�L
2021/10/16,07:40,0.574,0.841,0.551,1.024,0.725,0.362,0.607,0.571,���k��,3.7,�L
2021/10/16,07:50,0.570,0.838,0.551,1.024,0.724,0.359,0.605,0.572,�k��,3.4,�L
2021/10/16,08:00,0.572,0.841,0.550,1.024,0.721,0.358,0.606,0.571,���k��,3.6,�L
2021/10/16,08:10,0.571,0.840,0.550,1.023,0.723,0.358,0.605,0.572,�k��,2.5,�L
2021/10/16,08:20,0.570,0.839,0.547,1.022,0.720,0.358,0.605,0.571,�k��,3.0,�L
2021/10/16,08:30,0.572,0.838,0.547,1.024,0.719,0.357,0.605,0.571,�k�k��,3.2,�L
2021/10/16,08:40,0.571,0.836,0.545,1.021,0.717,0.357,0.604,0.570,�k�k��,3.2,�L
2021/10/16,08:50,0.570,0.837,0.545,1.019,0.717,0.356,0.604,0.570,�k�k��,2.6,�L
2021/10/16,09:00,0.569,0.837,0.546,1.018,0.717,0.356,0.604,0.570,�k�k��,2.6,�L
2021/10/16,09:10,0.569,0.835,0.543,1.021,0.714,0.355,0.603,0.570,�k�k��,2.9,�L
2021/10/16,09:20,0.569,0.834,0.546,1.018,0.715,0.357,0.603,0.570,�k�k��,3.0,�L
2021/10/16,09:30,0.570,0.832,0.545,1.019,0.715,0.357,0.603,0.569,�k��,3.3,�L
2021/10/16,09:40,0.569,0.833,0.545,1.015,0.713,0.356,0.604,0.570,�k�k��,3.4,�L
2021/10/16,09:50,0.568,0.833,0.544,1.019,0.717,0.357,0.604,0.570,�k�k��,2.8,�L
2021/10/16,10:00,0.570,0.835,0.543,1.015,0.715,0.355,0.603,0.569,�k��,2.3,�L
2021/10/16,10:10,0.569,0.834,0.542,1.018,0.714,0.356,0.605,0.568,�k��,2.6,�L
2021/10/16,10:20,0.567,0.834,0.543,1.016,0.714,0.355,0.602,0.569,�k�k��,3.6,�L
2021/10/16,10:30,0.568,0.831,0.542,1.020,0.715,0.355,0.603,0.571,�k�k��,3.5,�L
2021/10/16,10:40,0.570,0.835,0.543,1.019,0.713,0.355,0.603,0.570,�k�k��,4.0,�L
2021/10/16,10:50,0.567,0.834,0.542,1.018,0.711,0.355,0.604,0.568,�k�k��,3.8,�L
2021/10/16,11:00,0.566,0.835,0.540,1.018,0.713,0.353,0.604,0.570,�k�k��,3.8,�L
2021/10/16,11:10,0.567,0.833,0.540,1.018,0.714,0.353,0.602,0.569,�k�k��,4.6,�L
2021/10/16,11:20,0.566,0.834,0.539,1.019,0.714,0.352,0.604,0.569,�k,4.6,�L
2021/10/16,11:30,0.565,0.833,0.538,1.017,0.713,0.351,0.604,0.569,�k�k��,4.3,�L
2021/10/16,11:40,0.567,0.836,0.539,1.019,0.712,0.351,0.605,0.569,�k�k��,4.1,�L
2021/10/16,11:50,0.565,0.837,0.538,1.017,0.715,0.350,0.604,0.569,�k�k��,3.1,�L
2021/10/16,12:00,0.567,0.833,0.538,1.018,0.715,0.351,0.604,0.568,�k�k��,4.1,�L
2021/10/16,12:10,0.566,0.836,0.540,1.021,0.718,0.351,0.605,0.568,�k��,4.2,�L
2021/10/16,12:20,0.566,0.835,0.540,1.022,0.715,0.352,0.604,0.571,�k�k��,3.9,�L
2021/10/16,12:30,0.567,0.832,0.539,1.021,0.715,0.352,0.603,0.570,�k�k��,3.1,�L
2021/10/16,12:40,0.567,0.835,0.540,1.023,0.716,0.353,0.605,0.569,�k�k��,3.2,�L
2021/10/16,12:50,0.566,0.834,0.540,1.022,0.717,0.353,0.606,0.570,�k�k��,4.1,�L
2021/10/16,13:00,0.566,0.836,0.539,1.023,0.717,0.353,0.605,0.570,�k�k��,3.5,��
2021/10/16,13:10,0.568,0.834,0.539,1.023,0.717,0.353,0.605,0.571,�k�k��,3.5,��
2021/10/16,13:20,0.568,0.834,0.539,1.021,0.718,0.352,0.604,0.570,�k��,2.3,��
2021/10/16,13:30,0.567,0.836,0.537,1.021,0.716,0.353,0.605,0.572,�k�k��,3.5,�L
2021/10/16,13:40,0.567,0.834,0.539,1.021,0.714,0.352,0.605,0.572,�k�k��,4.3,�L
2021/10/16,13:50,0.566,0.836,0.539,1.023,0.717,0.351,0.604,0.570,�k,4.2,�L
2021/10/16,14:00,0.566,0.833,0.540,1.023,0.717,0.353,0.605,0.570,���k��,2.3,�L
2021/10/16,14:10,0.565,0.835,0.539,1.023,0.716,0.354,0.605,0.571,���k��,3.1,�L
2021/10/16,14:20,0.567,0.835,0.540,1.026,0.717,0.354,0.605,0.569,�k�k��,4.5,�L
2021/10/16,14:30,0.566,0.835,0.540,1.025,0.716,0.353,0.605,0.570,�k�k��,4.4,�L
2021/10/16,14:40,0.568,0.835,0.542,1.024,0.714,0.352,0.603,0.570,�k��,5.0,�L
2021/10/16,14:50,0.567,0.835,0.540,1.023,0.717,0.352,0.604,0.570,�k��,4.3,�L
2021/10/16,15:00,0.565,0.835,0.539,1.024,0.716,0.353,0.606,0.572,�k��,3.9,�L
2021/10/16,15:10,0.565,0.837,0.539,1.022,0.717,0.352,0.605,0.572,�k��,2.6,�L
2021/10/16,15:20,0.566,0.838,0.536,1.023,0.717,0.352,0.604,0.573,�k��,3.3,�L
2021/10/16,15:30,0.566,0.837,0.538,1.024,0.716,0.351,0.605,0.572,�k�k��,3.5,�L
2021/10/16,15:40,0.566,0.839,0.538,1.024,0.716,0.353,0.605,0.573,�k��,4.8,�L
2021/10/16,15:50,0.567,0.839,0.539,1.023,0.718,0.352,0.604,0.571,�k�k��,3.7,�L
2021/10/16,16:00,0.567,0.839,0.539,1.025,0.717,0.353,0.606,0.573,�k��,3.5,�L
2021/10/16,16:10,0.567,0.839,0.538,1.024,0.716,0.351,0.605,0.572,�k��,3.8,�L
2021/10/16,16:20,0.566,0.839,0.535,1.024,0.718,0.354,0.606,0.572,�k��,3.3,�L
2021/10/16,16:30,0.566,0.837,0.537,1.025,0.719,0.352,0.605,0.573,�k��,3.4,�L
2021/10/16,16:40,0.565,0.840,0.539,1.025,0.719,0.352,0.605,0.572,�k��,4.4,�L
2021/10/16,16:50,0.564,0.837,0.539,1.023,0.716,0.352,0.607,0.574,�k��,3.8,�L
2021/10/16,17:00,0.565,0.840,0.538,1.025,0.717,0.353,0.606,0.573,�k�k��,4.9,�L
2021/10/16,17:10,0.566,0.841,0.537,1.023,0.719,0.352,0.608,0.572,�k�k��,4.4,��
2021/10/16,17:20,0.567,0.839,0.539,1.025,0.719,0.351,0.607,0.573,�k�k��,4.4,�L
2021/10/16,17:30,0.567,0.841,0.539,1.024,0.720,0.351,0.607,0.573,�k��,4.2,�L
2021/10/16,17:40,0.566,0.840,0.540,1.024,0.718,0.352,0.608,0.574,�k��,4.5,�L
2021/10/16,17:50,0.566,0.839,0.538,1.025,0.720,0.351,0.608,0.572,�k��,3.5,�L
2021/10/16,18:00,0.568,0.838,0.538,1.026,0.718,0.352,0.606,0.573,�k�k��,3.6,�L
2021/10/16,18:10,0.567,0.840,0.537,1.027,0.719,0.355,0.608,0.574,�k�k��,4.0,�L
2021/10/16,18:20,0.568,0.841,0.540,1.027,0.720,0.353,0.608,0.575,�k�k��,4.0,�L
2021/10/16,18:30,0.567,0.839,0.537,1.024,0.720,0.351,0.606,0.574,�k�k��,3.7,�L
2021/10/16,18:40,0.566,0.838,0.538,1.024,0.720,0.352,0.609,0.574,�k�k��,3.3,��
2021/10/16,18:50,0.565,0.840,0.540,1.025,0.719,0.353,0.608,0.574,�k��,2.9,��
2021/10/16,19:00,0.565,0.840,0.538,1.026,0.718,0.353,0.609,0.575,�k��,2.9,��
2021/10/16,19:10,0.566,0.840,0.540,1.025,0.719,0.353,0.609,0.573,�k��,2.6,��
2021/10/16,19:20,0.568,0.839,0.539,1.025,0.721,0.352,0.608,0.573,�k�k��,2.6,��
2021/10/16,19:30,0.568,0.841,0.538,1.026,0.721,0.352,0.608,0.574,�k�k��,1.9,��
2021/10/16,19:40,0.566,0.842,0.539,1.027,0.721,0.351,0.609,0.574,�k,1.5,��
2021/10/16,19:50,0.566,0.838,0.538,1.026,0.719,0.353,0.607,0.575,�k,2.0,��
2021/10/16,20:00,0.566,0.840,0.539,1.026,0.720,0.352,0.609,0.573,�k�k��,1.7,��
2021/10/16,20:10,0.567,0.839,0.538,1.028,0.722,0.354,0.608,0.576,�k�k��,1.5,��
2021/10/16,20:20,0.566,0.839,0.537,1.028,0.718,0.353,0.609,0.574,�k�k��,0.9,��
2021/10/16,20:30,0.566,0.841,0.540,1.024,0.719,0.353,0.607,0.575,�k�k��,1.1,��
2021/10/16,20:40,0.566,0.841,0.539,1.025,0.719,0.353,0.608,0.573,���k��,0.8,��
2021/10/16,20:50,0.568,0.842,0.541,1.028,0.719,0.355,0.607,0.576,-,CALM,��
2021/10/16,21:00,0.566,0.843,0.539,1.029,0.720,0.353,0.608,0.574,�k��,1.2,��
2021/10/16,21:10,0.567,0.843,0.539,1.027,0.719,0.353,0.607,0.573,���k��,0.8,��
2021/10/16,21:20,0.566,0.841,0.538,1.028,0.718,0.354,0.607,0.575,-,CALM,��
2021/10/16,21:30,0.567,0.842,0.540,1.025,0.721,0.353,0.608,0.573,�쐼,0.8,�L
2021/10/16,21:40,0.568,0.841,0.539,1.028,0.721,0.354,0.608,0.574,��쐼,0.9,�L
2021/10/16,21:50,0.568,0.843,0.539,1.028,0.721,0.353,0.608,0.574,��쐼,1.5,��
2021/10/16,22:00,0.567,0.845,0.539,1.030,0.719,0.354,0.606,0.572,��,0.9,��
2021/10/16,22:10,0.567,0.843,0.542,1.028,0.722,0.354,0.608,0.574,��,0.6,��
2021/10/16,22:20,0.568,0.842,0.540,1.030,0.722,0.354,0.608,0.575,��쐼,2.0,�L
2021/10/16,22:30,0.568,0.844,0.539,1.027,0.721,0.354,0.607,0.574,�쐼,1.5,�L
2021/10/16,22:40,0.568,0.843,0.541,1.028,0.721,0.354,0.608,0.576,�쐼,2.2,�L
2021/10/16,22:50,0.568,0.843,0.540,1.027,0.721,0.354,0.608,0.575,��쐼,1.4,�L
2021/10/16,23:00,0.568,0.843,0.541,1.030,0.723,0.354,0.607,0.573,��,2.6,�L
2021/10/16,23:10,0.568,0.845,0.539,1.028,0.722,0.353,0.607,0.575,��쓌,2.0,�L
2021/10/16,23:20,0.567,0.842,0.540,1.028,0.722,0.353,0.608,0.576,��쓌,1.2,�L
2021/10/16,23:30,0.568,0.843,0.540,1.029,0.722,0.355,0.608,0.574,�쓌,0.9,�L
2021/10/16,23:40,0.567,0.844,0.539,1.027,0.722,0.353,0.609,0.574,��쓌,0.9,�L
2021/10/16,23:50,0.568,0.840,0.541,1.027,0.721,0.354,0.610,0.575,���쓌,2.0,�L
